GFSGL_500_spd_000.txt.gz
Wind_Speed
7 7 8 10 14 18 13 14 13 12 13 17 15 15 16 18 20 20 22 22 24 25 22 19 16 16 10 12 12 8 17 20 17 23 20 15 16 16 19 19 18 16 15
9 8 11 12 13 19 14 15 16 14 14 16 17 18 18 18 18 20 21 21 24 23 22 19 16 14 15 9 12 13 20 21 23 21 13 17 20 20 19 16 15 15 15
9 10 11 12 14 17 15 14 17 20 16 18 17 18 19 19 21 22 21 21 21 22 21 19 17 17 11 14 13 13 15 10 22 22 23 23 24 20 19 17 16 13 12
7 9 9 10 13 16 17 14 17 18 20 22 20 19 17 19 19 19 20 21 22 21 20 15 15 12 10 19 13 8 15 11 20 20 23 23 20 19 17 14 12 14 14
7 9 10 10 13 14 16 16 16 18 20 16 15 16 16 18 17 19 17 16 19 20 19 15 14 13 16 8 9 15 14 20 25 26 23 18 13 13 12 12 14 14 13
8 12 11 9 14 15 18 20 21 17 18 16 19 17 15 14 18 17 18 18 19 22 20 15 19 18 17 15 23 26 28 30 24 19 14 14 15 15 13 11 12 12 12
7 11 11 13 15 17 18 17 15 14 16 19 23 19 17 15 11 14 20 23 24 21 16 20 21 20 26 25 23 22 20 16 15 16 17 16 14 11 10 10 11 10 12
8 13 16 16 18 19 20 21 22 25 23 20 20 22 21 18 16 16 16 21 29 26 23 21 21 26 23 23 21 20 20 20 17 15 11 9 8 6 6 8 12 16 17
9 12 15 16 15 14 16 18 20 23 24 25 25 26 24 24 21 16 20 19 15 15 16 17 22 22 20 18 18 17 15 14 11 9 7 6 5 7 9 13 17 19 22
9 11 11 14 15 14 14 17 18 20 21 21 21 21 21 22 22 25 26 22 22 21 20 18 19 17 15 14 13 12 9 7 5 3 5 6 10 12 15 17 19 23 27
9 9 9 11 15 16 14 14 14 15 16 17 19 19 18 18 19 20 19 19 18 16 16 16 14 12 10 8 5 4 5 6 6 7 11 14 14 15 18 21 25 29 33
10 9 8 8 10 12 12 10 11 12 13 16 17 18 17 16 16 15 13 12 11 11 10 9 7 6 5 4 3 5 7 9 9 12 14 14 16 20 24 27 30 33 34
14 12 10 8 8 10 11 12 12 15 17 17 17 16 16 16 15 15 15 13 11 9 8 6 5 4 5 7 9 10 13 12 13 15 17 18 20 24 28 29 30 33 37
15 15 13 12 11 9 9 12 14 13 13 14 14 15 14 13 11 9 8 7 6 4 2 2 3 4 7 10 12 14 14 15 17 20 21 21 23 26 27 31 35 39 43
12 15 15 14 13 12 11 12 12 12 11 10 11 9 7 6 5 4 2 0 2 4 5 7 9 10 12 14 16 16 17 20 22 23 22 23 24 27 30 33 37 40 42
14 14 16 17 15 13 13 13 13 12 12 9 6 3 1 3 6 7 7 7 8 9 11 12 12 13 14 15 17 18 21 23 23 23 21 25 29 30 33 37 40 42 43
17 14 13 16 18 18 16 15 16 15 13 12 10 9 10 12 14 13 12 13 13 14 16 17 17 18 18 19 21 23 23 22 21 21 25 29 31 33 38 37 40 45 45
19 18 17 17 16 18 20 21 19 18 17 17 16 17 19 19 16 15 14 14 15 18 19 19 19 19 19 22 24 24 23 21 23 26 29 32 33 35 36 40 47 45 47
18 19 20 20 18 17 19 18 19 19 21 22 21 20 19 19 20 21 18 16 17 19 21 21 20 19 24 25 24 23 23 25 28 30 31 33 36 34 38 42 47 50 51
20 20 20 22 24 20 18 17 18 18 18 18 18 18 20 19 20 21 19 20 17 21 19 26 20 22 26 27 28 28 29 31 33 33 32 34 36 37 44 44 41 49 50
19 20 23 25 24 25 26 25 23 21 19 19 18 19 21 22 22 23 24 24 25 22 19 21 21 26 30 33 34 33 34 34 34 33 32 32 34 42 41 43 47 50 43
22 22 23 25 25 26 29 29 29 28 27 25 25 27 27 25 27 27 29 30 32 25 26 27 23 29 37 39 35 39 40 38 39 37 35 36 41 48 44 46 47 39 38
23 21 21 24 27 25 23 26 30 32 34 32 31 32 33 32 30 33 34 33 33 42 33 27 30 32 31 37 38 38 38 40 41 42 37 38 41 46 41 47 42 38 37
26 24 24 22 22 23 25 26 26 28 30 33 35 33 33 35 36 36 36 33 40 36 30 31 33 33 39 38 37 36 42 47 43 46 44 51 43 46 43 45 38 41 38
31 29 27 26 23 23 25 26 26 27 27 27 26 28 29 31 30 29 33 36 34 35 34 37 35 37 38 34 35 35 41 47 50 48 48 38 48 43 48 42 40 40 37
34 34 33 33 33 33 33 32 31 32 32 32 33 31 32 32 31 30 28 31 32 36 36 37 39 39 40 40 37 38 48 50 48 41 41 46 43 46 43 40 38 36 35

GFSGL_500_spd_003.txt.gz
Wind_Speed
11 6 8 9 15 13 12 8 11 10 12 12 12 14 16 20 23 20 22 20 18 17 15 15 9 10 19 20 26 22 20 28 21 25 23 16 21 26 25 23 18 18 22
7 5 7 9 11 11 14 10 10 11 12 12 14 16 18 19 21 23 18 20 19 20 17 15 14 12 16 17 13 22 32 23 25 24 23 20 14 20 24 21 22 23 18
8 5 5 8 12 9 15 15 12 14 13 14 15 14 16 18 20 22 23 24 24 22 17 15 13 14 15 15 14 11 14 20 20 20 28 19 18 23 23 24 22 17 16
4 2 5 7 12 12 15 15 19 15 13 14 15 14 13 17 19 19 22 24 25 21 18 18 17 15 14 14 14 9 9 13 18 21 22 27 24 26 24 20 18 19 18
6 3 6 8 12 14 15 16 17 15 15 14 15 14 13 14 17 18 19 21 20 20 17 16 17 13 13 13 10 11 13 10 22 22 20 23 24 20 19 16 16 16 11
7 5 6 8 13 15 14 14 13 13 11 12 12 15 13 13 14 16 18 19 21 20 15 16 15 12 15 11 13 12 14 23 22 23 23 19 17 14 15 16 12 9 9
4 5 11 10 12 11 8 8 10 10 14 12 15 17 15 10 12 13 18 22 21 23 19 19 18 17 15 16 15 15 16 24 22 20 15 15 16 16 13 9 9 10 10
5 10 15 15 15 15 17 16 12 13 13 12 19 20 14 12 12 18 23 21 23 22 24 22 20 22 19 22 24 25 25 23 19 16 13 10 8 7 8 8 8 9 11
9 8 14 13 13 14 17 19 20 19 17 18 19 19 17 18 18 24 26 21 25 24 24 24 25 27 25 20 20 20 17 17 15 11 10 9 7 5 6 7 9 12 14
9 8 8 9 10 13 15 18 18 18 19 18 18 20 22 22 24 24 22 22 19 19 22 24 26 24 22 18 17 16 15 12 9 7 4 4 5 6 9 11 12 16 19
8 9 11 10 11 13 15 15 15 16 16 17 18 17 19 23 24 21 22 24 25 24 23 20 18 16 15 15 12 9 8 5 4 5 6 7 8 10 13 15 19 22 25
6 7 8 11 10 11 12 11 11 11 12 14 16 17 18 18 18 18 17 17 17 17 16 13 11 10 9 7 6 4 2 2 5 7 10 11 12 15 19 21 22 24 27
9 7 6 8 9 9 9 11 12 15 16 17 16 16 15 14 13 13 12 11 11 10 10 8 6 4 3 2 2 3 3 5 8 12 15 15 17 18 20 21 23 26 29
10 10 8 6 9 10 11 12 15 15 15 16 16 17 17 15 14 13 11 10 8 7 6 4 2 2 3 4 6 7 8 11 15 18 19 20 21 21 23 23 27 31 33
9 12 12 9 9 9 11 14 14 14 14 14 15 13 12 11 10 9 7 5 3 2 3 5 6 8 10 11 11 12 14 17 19 20 22 22 23 25 25 27 31 33 36
12 12 13 13 12 12 12 14 14 14 14 15 12 10 7 4 3 4 4 5 6 7 9 10 12 14 15 15 16 17 21 23 23 24 25 26 26 27 29 31 34 34 36
17 16 14 15 16 16 15 15 14 13 14 15 13 10 8 6 7 9 11 8 8 10 13 14 14 16 17 18 19 22 24 25 25 25 25 27 29 30 32 34 35 37 39
17 18 17 16 17 19 20 20 18 17 17 17 16 15 14 14 16 17 14 12 12 14 14 15 17 17 17 19 23 25 24 25 27 28 30 31 33 34 35 35 37 37 39
16 18 19 19 19 20 20 21 23 22 22 22 22 22 22 23 22 17 16 18 18 17 15 16 16 21 19 22 25 25 27 28 30 31 33 35 36 36 37 37 36 36 43
13 14 19 23 24 25 22 20 22 24 25 26 25 25 24 23 20 18 17 17 17 18 17 21 19 18 20 23 26 27 29 31 34 35 36 38 40 40 37 38 40 49 46
16 15 17 20 22 25 27 23 22 22 22 22 23 23 23 22 20 17 19 19 21 23 26 28 28 23 22 23 27 29 32 35 38 40 38 39 41 38 40 42 43 53 44
20 19 19 19 21 24 24 25 27 25 25 23 24 25 24 24 26 25 24 24 26 29 32 31 28 30 34 30 29 27 27 35 48 41 45 47 48 40 41 47 48 47 48
26 27 25 21 20 23 26 25 23 25 27 30 30 31 31 31 31 31 31 31 31 35 33 36 34 34 35 36 34 32 28 35 42 39 40 45 49 49 52 54 48 46 46
33 31 29 24 21 20 21 24 25 24 24 27 28 30 32 32 33 33 34 34 34 33 35 36 38 42 38 35 40 37 34 38 36 40 41 42 45 50 59 51 49 49 47
33 34 33 29 26 24 25 23 21 21 23 24 25 26 25 31 31 31 32 33 34 33 34 34 35 37 37 40 43 42 41 39 39 43 43 42 41 50 49 47 46 59 58
35 34 33 31 30 28 26 26 26 27 29 31 31 31 30 32 32 32 35 38 39 38 39 36 39 41 43 43 41 38 43 39 44 45 50 46 49 54 40 48 60 53 49

GFSGL_500_spd_006.txt.gz
Wind_Speed
16 12 12 15 15 12 9 8 9 7 8 11 12 11 17 22 17 18 18 20 20 17 14 11 9 11 17 28 30 28 29 24 25 20 24 23 23 28 23 21 16 15 19
13 11 11 13 14 9 10 9 9 8 8 10 11 14 16 18 16 22 21 21 19 18 17 12 13 15 21 29 31 30 34 28 22 22 21 23 25 24 21 19 17 23 14
12 9 10 12 11 9 12 10 11 10 8 10 11 12 16 16 20 22 20 20 19 18 15 13 19 20 24 24 30 24 27 27 19 19 21 23 22 18 20 19 23 18 17
10 6 9 10 7 9 12 12 11 10 10 11 12 11 13 14 15 17 19 19 19 17 16 14 16 18 19 22 26 23 21 26 28 22 25 22 17 18 17 21 23 19 14
8 7 7 8 9 12 10 12 12 12 10 10 10 12 13 14 14 15 17 20 20 16 16 18 17 18 14 20 22 19 17 22 23 26 26 21 22 22 18 19 17 9 6
7 8 6 8 9 10 9 8 9 8 8 9 11 9 10 12 15 16 16 17 15 18 17 16 14 11 18 13 19 20 20 23 22 23 22 24 20 19 17 9 8 8 7
8 9 8 8 10 10 6 7 8 9 9 10 10 11 9 8 12 16 18 18 18 16 14 15 13 13 11 13 14 15 14 23 19 18 16 17 16 11 11 10 6 7 9
9 9 10 9 12 14 12 10 12 10 13 15 13 7 7 6 13 13 17 19 19 17 20 16 14 17 15 16 12 15 21 18 17 14 11 12 13 11 8 7 5 6 9
8 7 7 8 12 15 20 16 16 17 18 18 17 16 12 16 15 16 17 16 17 17 16 19 15 13 14 11 15 19 20 20 17 14 12 9 7 5 4 5 5 8 10
5 4 5 8 11 13 14 17 18 18 17 21 19 21 20 22 21 20 23 22 18 16 21 19 20 19 18 17 18 18 16 15 12 11 9 6 4 4 6 7 7 10 13
5 4 5 8 10 12 12 13 15 15 17 19 22 25 24 25 25 19 16 18 19 19 24 21 19 15 13 14 13 13 10 9 8 4 2 2 4 6 8 10 12 14 16
3 4 4 6 8 7 8 9 10 13 15 17 18 20 21 22 23 25 25 23 20 18 19 19 16 14 11 9 8 7 5 4 3 3 4 5 7 10 12 14 16 18 21
4 5 4 3 5 4 2 5 8 10 13 15 15 16 17 16 17 17 18 17 16 16 15 13 11 10 8 7 5 4 4 5 6 6 7 9 10 13 16 19 21 23 23
5 6 6 5 6 6 6 8 12 14 16 18 19 19 19 20 19 18 17 16 14 12 10 9 7 5 3 1 1 3 5 8 10 12 14 15 16 18 20 22 24 24 25
4 6 7 7 9 8 8 10 11 12 13 16 18 19 18 17 16 14 11 9 7 6 4 4 4 4 4 5 6 7 10 12 13 14 16 18 19 21 23 25 26 27 30
8 7 7 10 13 12 11 12 13 13 13 15 13 12 11 10 9 8 8 7 5 4 4 4 4 6 7 9 10 12 15 17 18 18 20 21 23 25 27 28 30 32 34
12 11 10 10 13 15 15 15 14 12 12 14 13 11 8 5 2 2 5 6 3 5 6 7 8 9 10 11 13 16 19 20 20 21 23 25 27 28 30 31 33 35 37
13 14 15 14 15 16 17 17 16 15 14 15 15 13 11 11 11 10 10 9 9 11 11 9 9 10 12 12 18 21 21 21 22 23 25 27 30 32 33 34 36 38 40
14 14 14 16 16 17 18 19 20 19 19 19 19 20 19 18 18 17 17 14 14 15 15 14 13 13 16 16 19 21 25 24 25 26 28 30 33 35 37 37 36 38 41
16 16 18 20 20 19 18 20 21 23 24 24 24 25 25 25 25 24 20 17 17 17 16 17 17 19 20 24 22 22 23 24 26 26 26 28 34 42 40 39 41 44 45
17 17 18 19 20 22 24 23 25 25 24 25 27 27 25 24 23 20 19 18 18 19 19 22 23 25 27 25 24 27 32 35 34 32 32 36 39 40 46 53 45 48 52
22 19 18 19 22 22 22 22 24 26 26 24 24 23 23 23 23 22 21 20 23 26 27 28 27 28 30 28 31 31 35 38 35 32 33 36 42 39 40 43 41 45 50
27 25 24 23 21 21 21 23 25 25 26 28 30 30 28 27 28 28 28 30 30 30 31 31 31 33 36 36 34 33 38 38 38 40 43 46 47 43 44 45 42 41 47
33 32 29 27 25 24 24 23 23 24 25 26 27 29 26 28 28 29 30 30 29 31 33 32 32 32 34 34 34 34 36 34 38 44 48 46 44 46 49 46 37 38 45
39 39 34 31 28 28 26 25 24 22 22 23 23 24 24 24 26 28 29 28 27 28 29 30 31 32 34 36 38 39 39 41 43 46 47 47 49 52 52 52 46 41 39
45 43 37 34 34 34 31 28 27 26 25 25 26 25 25 26 27 29 31 31 32 33 34 34 36 38 40 41 42 45 48 49 47 49 49 47 51 51 52 52 54 45 36

GFSGL_500_spd_009.txt.gz
Wind_Speed
16 17 15 16 17 15 12 3 5 8 9 10 11 14 17 18 17 16 15 14 11 12 12 11 11 14 18 21 22 28 29 24 23 15 18 19 18 18 16 20 21 17 16
16 14 13 15 12 11 8 4 7 9 9 10 11 12 18 14 15 17 16 14 14 11 12 14 11 11 23 24 29 26 23 22 19 19 16 15 23 17 20 23 18 8 13
12 11 11 13 10 11 7 7 8 9 10 10 13 15 13 12 16 16 17 15 14 8 16 19 15 17 27 28 22 28 21 16 16 16 19 18 22 21 17 14 17 14 17
11 11 10 10 11 11 11 9 9 10 11 9 11 14 14 13 17 15 15 15 14 14 20 19 18 19 26 30 21 20 18 22 16 19 17 17 23 19 15 11 16 20 17
10 9 9 8 11 9 7 9 10 10 10 10 8 8 11 16 16 14 13 14 13 14 15 18 19 24 21 28 21 20 22 21 13 15 17 21 18 15 12 13 18 14 15
9 9 8 5 8 8 8 7 8 9 8 9 10 8 8 12 15 14 17 15 13 15 16 15 17 15 23 28 23 17 24 22 17 13 18 17 17 18 10 12 16 10 3
8 9 10 9 7 8 8 10 12 10 12 10 11 8 8 9 12 16 17 16 15 16 14 13 12 15 17 17 18 17 20 17 19 22 19 17 15 16 12 8 4 4 3
9 11 12 12 11 12 10 11 14 14 13 10 7 6 8 10 11 14 17 16 15 13 15 16 18 12 15 14 15 14 17 17 16 16 12 10 10 9 7 4 3 4 5
7 10 13 12 16 18 16 17 16 16 13 13 12 10 9 13 12 13 16 17 17 14 15 17 13 11 14 12 16 20 20 19 16 14 13 10 7 7 7 5 5 6 8
6 9 10 12 13 16 16 16 17 16 17 19 21 18 20 15 14 14 15 14 12 12 11 11 12 12 14 17 19 18 17 16 15 14 12 9 7 5 3 6 9 11 11
5 7 9 10 11 13 13 15 17 18 21 23 22 21 22 20 21 21 16 13 16 16 18 19 17 17 16 17 17 16 14 14 12 9 6 4 5 6 7 10 12 13 14
5 7 8 7 9 10 11 11 14 17 20 20 23 25 26 26 25 24 22 17 19 23 22 19 20 18 17 17 16 14 12 9 7 7 7 7 8 9 9 10 13 15 16
4 5 6 4 4 6 7 7 9 14 16 18 18 20 23 24 23 24 24 21 22 25 22 19 17 14 13 12 11 10 9 9 8 6 5 5 6 8 10 13 15 17 19
3 4 4 5 4 6 8 10 11 12 14 16 18 21 21 22 23 22 21 20 19 17 15 14 12 10 8 6 5 3 3 4 5 5 5 6 8 10 14 16 19 22 24
4 5 4 5 7 7 10 12 13 15 16 19 20 21 21 21 20 19 17 14 13 12 11 9 7 6 4 2 1 3 5 6 7 8 9 10 12 15 18 20 23 25 25
7 5 7 7 8 9 11 13 14 15 17 18 17 15 14 13 13 13 11 8 7 6 5 3 2 0 2 4 6 9 11 12 12 12 13 14 16 19 22 24 25 26 27
13 10 8 9 10 11 11 14 14 13 14 12 10 8 9 8 7 6 5 4 2 0 1 1 2 4 5 7 10 13 16 17 17 17 17 18 20 22 24 25 27 30 32
12 14 14 13 13 13 13 13 14 14 13 14 14 11 10 8 5 5 5 7 9 7 7 9 9 8 8 8 13 13 15 17 20 22 22 23 24 24 23 22 27 31 35
14 15 16 17 16 17 16 16 16 15 15 14 14 16 15 14 14 13 13 14 16 13 11 11 11 12 11 11 13 16 19 18 18 18 21 25 26 26 26 31 33 40 40
16 18 19 20 20 20 19 18 18 18 18 19 19 19 18 19 19 19 19 20 18 16 15 14 13 12 15 19 19 21 21 22 25 26 27 33 36 36 36 36 36 37 42
20 21 21 22 22 21 20 20 20 21 22 22 23 22 23 23 22 21 19 17 17 19 18 16 17 19 20 21 21 22 21 25 27 27 29 33 34 33 35 39 43 44 43
26 26 25 23 23 24 24 25 25 25 25 26 26 25 24 23 21 20 19 19 20 21 22 24 26 25 25 25 26 26 27 24 26 30 31 34 35 35 39 42 42 48 48
29 31 30 28 26 26 26 25 26 26 26 26 27 27 25 25 25 24 25 25 24 25 29 29 30 28 28 28 26 26 26 28 27 30 33 34 36 40 43 44 46 47 46
34 34 36 35 32 30 28 26 26 26 27 27 28 27 28 29 31 32 32 32 31 30 29 29 28 26 26 25 25 27 29 30 32 34 36 38 41 45 43 45 49 51 37
40 39 39 40 38 34 32 29 27 26 25 26 30 32 32 30 28 28 28 29 31 30 27 25 25 25 27 29 31 33 34 35 37 38 40 43 44 47 47 47 47 50 56
46 46 45 44 44 41 40 37 32 30 27 26 27 28 29 28 26 26 27 26 24 26 27 26 26 27 29 31 33 36 38 38 40 43 45 47 48 49 48 48 44 53 59

GFSGL_500_spd_015.txt.gz
Wind_Speed
11 14 12 11 6 7 3 2 2 2 2 3 2 5 5 3 3 5 7 9 11 10 8 13 14 10 12 13 13 18 21 23 26 30 31 28 18 14 15 20 21 25 23
11 10 7 5 3 1 3 2 1 2 5 6 2 4 4 1 4 6 7 13 14 7 7 6 9 15 14 16 16 18 13 17 23 26 16 22 19 20 24 21 22 23 21
7 3 4 3 1 2 3 3 1 2 5 9 5 4 2 3 4 5 7 10 16 13 6 9 13 13 14 15 7 5 5 11 18 18 21 18 22 16 25 25 20 24 19
5 2 3 2 2 3 2 3 2 4 6 11 11 4 2 5 5 5 9 13 12 8 13 9 12 11 8 10 14 14 16 15 18 23 25 24 20 18 23 21 21 21 18
2 1 4 5 4 2 1 3 3 5 7 12 14 5 5 7 5 5 8 10 10 10 12 14 12 13 17 16 18 12 16 18 18 20 17 19 20 25 20 17 18 16 16
1 3 5 3 3 2 2 3 5 5 7 10 11 9 5 10 5 5 5 9 14 16 14 15 12 13 14 14 13 13 16 12 14 20 16 19 21 16 14 12 14 16 11
3 5 6 3 5 3 3 2 6 7 7 9 10 10 8 11 8 4 5 9 16 17 13 11 11 13 12 10 8 13 15 15 17 19 17 22 15 10 8 9 15 11 12
5 7 8 8 6 5 5 6 8 6 7 8 8 8 10 11 11 7 7 9 10 11 17 16 13 10 10 6 10 11 11 10 16 18 18 16 13 5 7 13 13 11 11
7 8 11 10 8 7 7 7 4 2 3 6 9 10 11 12 14 11 10 7 7 13 15 15 13 11 10 7 12 15 12 13 15 17 18 14 10 8 10 13 10 9 6
7 7 10 11 11 11 8 8 8 8 6 6 9 12 12 13 14 14 12 9 9 12 13 14 14 14 14 14 16 15 14 14 18 17 12 10 11 13 11 10 7 4 1
7 7 10 11 11 10 13 12 9 12 12 12 11 14 15 16 16 17 13 9 9 8 7 12 12 14 17 17 17 17 17 17 17 16 14 11 11 10 7 3 1 2 6
8 7 8 11 11 10 12 16 15 15 14 14 16 15 13 15 17 17 15 13 10 12 17 16 21 19 17 18 19 19 18 16 14 12 9 7 5 3 3 5 7 10 13
9 8 6 7 9 11 10 13 15 17 20 23 25 23 14 11 14 16 16 13 16 17 19 19 23 22 21 19 16 14 12 9 7 5 4 2 2 3 6 8 10 12 14
9 8 7 7 8 11 11 11 13 14 16 19 21 24 25 30 19 17 24 24 24 23 21 22 19 17 16 13 11 8 6 4 2 0 1 4 6 8 10 11 12 13 15
9 9 7 7 9 11 12 12 12 13 16 19 22 23 24 24 25 23 23 21 19 17 17 15 14 12 11 9 7 5 2 0 1 2 5 7 8 10 11 13 14 15 16
8 9 9 9 10 12 12 13 15 17 19 22 21 19 18 17 17 17 16 15 14 13 12 10 8 7 6 5 4 3 3 3 3 5 6 8 9 11 13 14 15 17 19
9 8 9 10 11 12 13 13 13 14 17 16 14 12 12 13 14 13 12 11 11 10 9 7 4 2 1 3 4 5 3 4 5 7 5 6 8 9 10 14 18 22 23
11 11 10 11 12 12 13 13 13 13 13 11 9 6 6 6 6 7 6 6 6 3 2 0 1 3 2 1 2 2 3 6 6 5 6 8 10 13 17 19 20 23 21
15 13 13 13 13 13 15 15 15 14 12 10 8 6 6 6 4 4 3 3 4 4 3 3 4 4 4 3 4 6 9 12 11 10 12 13 18 18 17 20 20 22 26
14 15 16 15 16 16 15 17 18 18 17 15 14 14 13 12 11 11 10 10 10 10 9 7 5 5 4 3 6 10 12 15 16 18 18 19 18 20 22 22 24 26 28
17 17 17 18 18 19 20 20 20 20 20 20 20 19 18 18 16 14 15 15 16 14 11 9 8 9 9 11 12 14 17 19 19 20 21 20 21 23 25 29 31 31 34
21 20 19 18 18 20 21 21 22 23 24 23 23 22 22 21 20 19 19 18 17 16 13 12 12 12 13 16 18 20 20 19 20 19 19 21 24 25 27 29 34 35 36
29 27 24 23 20 20 21 23 23 23 24 25 26 24 24 24 23 24 24 22 20 18 17 16 16 17 19 21 22 22 22 22 20 20 24 26 28 29 29 31 34 38 37
30 31 31 29 29 26 22 23 25 26 26 27 28 28 26 28 27 27 27 27 25 23 23 22 22 22 22 21 21 23 23 22 24 27 28 29 29 32 33 34 36 37 37
33 33 33 32 32 33 30 27 26 27 28 28 29 29 29 29 30 29 29 29 29 30 28 25 23 23 23 22 22 22 23 26 30 33 32 31 33 34 34 33 35 38 39
36 36 37 37 36 35 37 35 32 31 31 31 31 31 31 31 32 32 31 31 31 32 31 31 28 26 26 26 24 25 28 31 33 33 32 31 29 33 35 38 38 40 42

GFSGL_500_spd_021.txt.gz
Wind_Speed
13 14 16 17 20 15 14 12 10 9 7 7 3 4 5 7 12 18 8 6 5 2 1 2 2 3 6 9 8 8 14 16 15 18 21 23 26 29 25 30 23 23 17
13 14 16 14 13 11 12 11 9 8 6 3 2 4 5 8 14 8 5 12 8 2 1 3 4 3 4 11 10 10 13 15 16 18 21 23 25 25 23 31 13 13 10
13 14 14 11 10 9 10 9 8 7 5 3 1 4 5 7 10 10 8 12 11 10 7 6 3 5 6 9 8 14 14 15 18 18 21 24 26 25 24 27 16 8 15
13 12 11 8 9 8 10 8 6 5 5 5 3 3 5 7 9 8 4 9 9 8 9 10 11 10 11 11 12 12 15 16 18 21 21 29 20 18 17 18 21 17 15
9 7 8 9 9 8 9 6 4 3 3 6 4 3 6 9 10 10 9 10 13 13 16 16 18 16 15 10 11 15 19 19 19 21 20 19 18 16 12 22 25 23 24
6 8 9 9 7 5 6 4 3 2 2 7 6 4 5 8 11 8 11 13 16 20 19 21 20 20 23 21 21 22 24 22 22 20 22 20 24 21 18 16 24 22 18
7 8 5 5 6 5 2 1 2 1 2 6 7 4 3 6 12 12 12 11 13 15 18 19 23 24 24 26 27 25 31 32 33 30 33 32 27 27 26 25 24 20 14
6 5 6 6 8 9 6 3 2 1 3 5 7 7 5 6 11 12 12 14 12 18 20 18 20 23 24 26 28 28 36 38 40 39 34 31 29 28 27 22 19 12 16
4 7 9 10 9 10 9 3 1 2 6 6 6 8 7 8 11 13 15 16 17 16 16 17 17 16 17 22 24 27 31 30 33 30 27 23 21 22 22 17 12 18 17
1 5 8 10 12 10 8 7 7 3 2 8 7 9 10 11 11 12 14 16 15 14 12 12 13 15 17 21 26 25 26 24 24 24 24 25 22 21 20 21 20 16 12
0 3 5 9 12 14 10 7 7 7 5 7 10 11 12 13 11 11 13 13 13 14 17 18 19 18 20 22 22 25 24 23 24 28 27 27 25 23 21 20 16 10 7
1 3 4 8 11 14 15 11 7 8 9 9 9 11 13 14 12 11 11 10 10 13 14 18 21 24 26 26 27 27 28 29 27 25 21 21 19 18 16 12 12 6 5
1 1 3 7 8 11 15 20 19 14 9 8 11 14 15 14 12 9 8 12 15 15 15 20 21 21 24 24 26 27 25 25 23 19 16 15 15 14 12 10 8 6 4
0 2 2 5 7 8 11 16 20 19 16 11 13 16 15 13 11 10 13 16 19 19 21 23 22 22 23 23 21 20 18 18 17 15 13 11 10 11 11 9 7 5 5
2 2 3 5 6 7 7 13 17 20 26 19 17 17 16 15 13 14 16 17 21 23 22 21 20 19 17 15 14 13 12 13 11 9 9 9 11 11 8 6 4 4 6
6 3 3 5 6 7 9 12 18 20 22 25 28 27 25 24 23 21 20 21 19 17 16 15 14 13 12 12 11 12 11 11 11 8 8 8 9 8 5 2 4 8 9
5 6 5 6 6 8 10 13 16 17 18 19 18 19 19 20 18 18 18 16 16 16 14 13 12 11 12 11 13 13 14 13 11 9 9 8 5 4 1 3 5 7 10
6 6 7 6 8 9 10 11 13 12 13 13 14 15 15 14 13 13 13 13 12 11 10 10 9 9 10 10 11 8 8 7 7 6 3 2 1 3 4 3 5 5 9
9 8 7 9 10 11 11 11 11 10 8 7 7 9 9 10 10 9 8 7 6 5 5 4 3 4 3 8 8 5 3 0 1 1 3 2 3 4 5 7 10 11 11
12 12 10 8 9 10 12 13 13 12 12 10 8 6 5 4 4 4 3 2 2 1 2 2 3 3 2 4 7 6 1 6 8 9 8 8 9 8 7 8 11 14 18
12 12 12 12 10 10 12 13 14 15 15 15 13 12 11 9 7 5 5 5 5 5 4 4 5 7 8 8 9 10 11 11 11 13 14 13 13 13 14 16 18 20 21
15 14 13 12 11 11 12 13 14 15 16 16 18 18 16 14 13 12 11 10 10 10 9 8 8 9 10 11 11 11 13 14 16 16 17 17 18 19 18 19 22 24 22
19 18 16 16 15 14 13 12 13 15 16 18 19 21 18 18 18 16 16 16 15 14 13 12 13 15 16 16 16 16 17 20 22 22 24 24 21 21 23 24 26 26 26
23 21 18 20 19 18 18 17 16 15 15 16 16 18 22 21 20 21 21 19 17 17 16 16 16 18 18 20 21 22 24 24 24 25 27 27 25 23 25 27 30 29 29
26 24 25 24 25 24 23 20 19 19 20 19 18 17 19 20 20 20 21 21 21 20 19 18 18 19 20 22 24 24 25 25 26 27 28 29 27 26 26 28 31 33 32
34 34 31 31 30 29 29 26 22 22 21 20 21 21 21 21 22 22 22 22 22 22 22 22 22 22 23 23 24 26 28 29 30 32 34 33 32 31 31 31 32 35 36

GFSGL_500_spd_024.txt.gz
Wind_Speed
13 13 15 16 19 16 13 11 9 8 7 6 3 3 5 7 11 7 10 14 8 6 1 4 5 5 7 10 12 10 12 17 18 19 20 22 22 21 25 21 22 20 20
13 13 15 16 14 11 9 8 8 8 5 3 2 2 3 5 10 3 9 12 8 4 2 4 6 8 10 11 10 10 13 18 19 18 20 21 24 26 24 22 20 19 21
13 14 15 14 8 8 6 7 8 7 4 3 2 3 1 4 7 6 8 10 4 3 6 5 5 5 9 12 12 15 14 17 17 17 18 20 23 25 22 25 23 25 18
14 13 11 8 7 9 7 6 6 6 3 6 3 1 2 5 7 7 6 7 4 6 9 8 9 8 6 11 13 13 13 18 19 18 17 18 20 22 24 27 28 14 19
9 7 7 9 10 10 7 5 4 4 3 7 3 2 2 6 7 8 7 6 10 11 13 14 12 8 7 9 12 14 14 17 18 17 14 17 22 16 20 28 22 13 18
9 10 10 9 6 5 5 5 3 1 6 8 6 5 4 8 10 8 10 15 15 16 13 15 17 10 10 12 19 20 20 20 19 17 19 18 18 17 15 24 19 18 21
9 8 6 5 4 2 3 3 2 3 7 10 8 6 5 9 9 8 10 10 13 14 14 16 15 20 17 16 17 21 23 25 25 24 19 18 21 16 16 27 27 25 24
7 6 7 6 7 5 6 5 4 4 7 10 9 7 6 5 9 8 12 11 15 17 16 18 20 19 19 22 20 21 24 23 23 27 28 27 21 26 31 29 22 18 17
6 5 7 7 5 6 6 4 2 3 8 10 10 10 9 7 10 11 14 16 17 16 14 14 18 23 25 32 33 31 31 32 33 33 34 34 32 28 28 22 16 19 19
4 5 7 9 7 5 5 6 6 5 9 11 11 12 12 9 13 12 13 14 12 14 13 12 15 20 25 30 36 31 29 28 27 29 31 32 29 28 19 19 25 23 20
4 4 6 8 11 9 4 6 7 5 7 14 12 13 15 12 11 12 12 11 11 12 10 12 20 18 24 30 31 27 24 24 27 29 26 25 24 23 25 24 20 16 14
4 4 7 8 10 12 9 7 6 7 11 13 15 15 17 13 11 10 10 11 14 14 11 13 21 21 22 23 23 23 27 30 29 31 30 28 26 23 21 19 16 15 12
5 5 6 6 10 15 14 11 9 10 12 12 15 17 17 13 10 9 9 13 14 15 15 16 19 20 20 22 21 21 25 28 26 25 25 23 21 20 18 14 13 12 8
6 5 5 6 8 13 15 15 15 13 14 14 16 18 17 14 13 12 13 17 17 18 19 19 19 20 20 23 21 21 22 22 23 21 20 18 17 16 15 13 10 7 4
4 6 6 8 8 11 14 18 20 16 17 17 18 18 18 17 17 17 19 22 21 21 22 22 24 22 20 19 19 18 18 17 17 16 14 14 15 15 13 10 7 3 2
3 5 7 8 10 13 15 17 23 24 17 19 18 19 19 18 21 22 21 23 23 21 20 19 16 15 16 15 14 12 11 12 14 14 13 13 11 9 8 5 1 3 3
6 4 7 9 10 12 16 17 19 21 21 23 22 23 24 22 22 21 22 18 18 18 17 14 13 12 11 11 14 14 16 15 13 13 13 10 8 5 3 2 3 4 7
6 7 6 8 10 12 14 15 14 15 15 17 18 18 18 18 18 19 18 17 16 14 12 11 11 12 12 15 15 14 12 10 9 7 7 6 7 6 5 5 4 5 8
10 8 9 9 9 11 13 14 12 11 12 12 13 15 16 16 15 15 13 12 11 10 9 9 9 10 12 13 9 6 4 3 3 2 3 3 3 4 6 5 4 7 9
16 12 10 10 10 11 12 13 13 12 9 8 7 8 9 9 9 9 8 7 7 7 6 6 6 6 6 10 10 9 7 2 2 2 3 5 5 7 9 7 7 9 12
16 16 15 13 12 12 12 13 14 14 14 14 12 10 7 5 4 4 3 3 3 2 2 1 3 7 7 7 9 11 11 10 10 8 9 9 10 11 12 11 12 14 16
13 15 15 17 16 14 14 14 15 16 17 16 15 14 13 11 9 8 8 8 7 5 4 4 5 6 8 12 13 14 15 14 15 16 17 18 17 16 16 17 16 18 19
17 14 15 16 17 18 17 17 16 17 18 18 19 18 17 18 17 16 15 14 13 11 9 8 8 9 11 12 14 16 17 18 19 18 19 22 24 24 22 21 21 21 21
25 23 20 20 19 19 19 19 19 19 20 21 21 20 19 20 21 20 20 19 18 17 16 15 15 16 17 17 18 19 21 23 24 24 24 24 25 26 24 23 22 23 24
28 27 26 26 25 24 23 23 22 21 20 20 20 23 23 22 21 22 23 24 24 23 22 21 22 22 23 22 22 22 22 24 25 27 28 28 28 30 30 28 28 28 27
33 33 31 29 27 28 27 27 26 25 23 23 23 23 24 25 25 25 25 26 26 26 27 27 27 26 25 25 24 25 25 26 27 29 31 33 33 32 34 33 31 31 32

GFSGL_500_spd_027.txt.gz
Wind_Speed
13 11 11 13 14 17 13 9 8 6 9 8 6 7 8 9 12 7 9 12 12 9 5 2 3 6 7 11 12 12 13 18 18 18 19 21 21 22 24 21 21 19 21
10 11 13 14 14 10 10 7 4 6 9 4 5 5 6 7 9 7 7 10 8 9 6 6 6 7 9 12 13 10 10 15 18 18 19 19 20 19 21 22 19 19 21
10 13 15 13 11 7 9 5 4 6 6 4 5 4 5 7 8 7 6 7 7 5 3 5 5 7 8 11 11 12 13 16 17 18 17 18 22 20 24 23 17 20 20
10 11 8 6 6 9 9 6 6 6 3 6 3 3 3 4 6 5 4 5 4 2 4 6 6 9 13 13 13 14 15 17 17 18 17 19 22 20 20 23 22 21 21
9 10 10 11 11 10 8 6 5 5 4 7 4 2 2 4 1 4 5 2 2 2 9 10 7 7 13 14 15 14 15 19 21 20 18 17 20 21 17 18 19 22 17
10 11 12 7 6 6 5 5 4 4 5 8 5 3 4 3 3 5 9 6 6 6 11 12 7 4 9 15 14 17 23 25 23 21 18 18 20 19 18 23 23 10 15
10 10 5 4 3 0 3 4 5 5 8 10 6 4 4 1 6 5 5 5 10 8 8 8 9 6 6 14 16 18 22 25 23 23 20 22 18 17 18 21 17 18 22
8 5 4 2 3 2 5 5 7 6 9 11 7 5 3 1 4 7 7 8 11 15 12 12 10 10 10 15 20 20 19 21 22 19 18 23 19 11 24 21 21 23 20
5 4 4 2 2 4 5 4 6 8 9 12 10 7 4 2 8 9 8 8 7 11 15 14 15 15 19 21 22 21 19 19 19 21 22 22 19 28 30 25 22 22 18
2 4 5 5 1 2 3 3 6 9 11 13 13 10 5 9 10 11 9 9 7 7 10 15 20 28 32 30 28 23 21 23 25 26 24 29 33 31 28 24 20 20 22
4 5 5 6 5 0 5 5 4 9 14 13 16 13 8 10 11 9 9 8 9 5 7 14 18 22 26 29 31 26 22 22 25 30 31 29 28 21 18 23 24 21 18
7 6 6 6 8 6 4 3 4 8 15 16 17 15 11 9 11 9 8 10 11 11 11 17 21 20 19 19 18 20 24 23 23 24 27 24 23 26 25 22 21 19 17
7 5 5 7 11 8 5 3 6 10 14 18 18 18 13 10 8 5 8 10 11 12 14 16 18 20 16 15 15 18 23 24 24 24 24 25 25 24 21 18 16 15 12
6 6 6 8 9 8 9 8 7 12 13 17 19 19 13 10 6 9 13 13 13 18 18 17 18 18 16 14 17 19 22 23 23 23 22 21 20 18 16 16 15 12 9
5 8 9 10 9 13 14 13 12 13 16 19 19 17 14 12 10 13 15 17 17 17 19 20 22 22 21 19 17 15 14 16 16 17 18 17 15 15 15 13 11 8 6
6 7 9 12 12 14 18 16 15 17 17 19 18 15 16 17 16 17 18 17 17 19 19 20 19 20 20 18 16 14 14 13 13 12 12 13 13 12 11 9 6 3 4
6 6 9 11 14 15 16 19 19 18 16 16 16 16 16 16 20 19 19 18 17 16 13 13 13 13 13 12 10 12 12 11 12 12 12 11 10 9 7 5 5 5 5
9 6 8 10 13 14 14 15 16 18 18 18 19 19 19 19 21 19 17 16 16 14 12 10 10 10 12 14 14 13 12 10 10 10 9 8 7 6 7 7 7 7 6
13 12 9 11 13 14 13 13 14 14 15 14 15 17 18 17 18 16 14 13 12 12 12 11 11 12 14 14 13 11 8 6 6 5 4 5 5 6 6 7 9 10 10
13 12 13 12 13 13 14 13 12 12 11 11 11 12 14 15 15 14 13 11 10 9 8 8 9 10 12 14 12 10 11 8 5 4 3 5 6 8 8 9 10 12 13
16 14 13 13 13 14 15 14 13 13 11 9 8 8 7 7 6 7 7 7 6 6 5 5 7 8 9 10 13 11 11 8 6 7 8 7 7 9 11 12 14 17 18
15 18 17 16 16 16 17 18 18 17 16 15 13 11 9 8 7 6 5 5 6 5 4 3 3 4 6 9 10 11 13 14 14 14 13 13 13 15 16 17 17 19 21
16 15 16 18 19 18 17 18 19 20 20 20 19 18 17 16 15 14 14 13 13 12 12 12 11 11 11 12 13 15 16 17 19 18 18 19 20 20 21 21 21 22 25
22 20 18 17 16 17 17 19 20 20 20 21 22 22 21 21 21 21 21 21 19 19 18 17 17 19 19 19 20 20 20 23 24 24 25 25 25 26 26 25 25 24 24
27 26 24 21 19 19 20 20 20 21 21 21 21 22 24 24 23 24 25 25 25 24 24 24 24 25 26 26 26 27 27 28 29 30 30 31 31 32 32 31 30 30 30
32 30 28 26 25 25 25 25 25 25 24 23 23 24 24 23 24 26 27 27 27 28 29 29 29 30 31 31 31 31 31 31 31 32 33 32 31 32 34 34 34 33 31

GFSGL_500_spd_030.txt.gz
Wind_Speed
15 15 13 12 13 14 16 16 12 11 10 10 11 12 12 10 10 11 10 11 13 9 5 7 3 5 11 14 8 10 18 17 19 19 20 22 25 25 23 20 22 23 21
13 10 10 12 15 14 14 13 12 10 8 9 10 10 9 8 9 11 10 10 11 5 12 7 5 5 8 12 11 12 14 16 19 20 21 21 21 22 22 22 21 20 20
8 8 11 14 14 14 13 11 11 9 7 8 9 8 7 7 9 10 10 13 4 6 8 7 5 7 8 13 15 11 11 14 18 20 20 21 21 22 24 23 24 20 20
6 8 9 9 10 10 13 11 9 8 7 7 7 5 5 7 9 8 10 11 10 5 4 6 5 7 9 13 12 14 14 17 20 20 20 21 23 23 22 22 21 19 18
6 8 9 11 11 12 13 10 7 8 7 6 6 4 3 8 5 7 9 7 7 4 3 6 8 9 13 13 13 13 16 18 18 20 21 19 18 15 24 19 25 21 16
6 8 10 7 7 8 8 6 7 6 6 8 6 2 4 3 4 4 8 9 8 7 9 6 6 11 13 14 15 16 19 21 23 22 20 19 18 19 14 18 21 14 17
5 7 5 5 5 4 2 4 7 7 7 10 5 3 2 3 3 2 5 9 8 6 4 5 5 9 15 14 12 16 20 24 23 24 24 23 22 20 15 18 20 8 13
4 3 3 4 4 3 5 6 7 6 9 10 5 3 1 3 2 2 5 10 12 9 7 6 4 7 14 19 18 22 24 23 21 19 21 23 18 19 16 14 13 19 23
1 1 2 4 4 3 6 5 7 6 8 10 6 4 1 2 3 4 4 9 13 13 11 6 7 8 16 21 22 23 24 24 23 19 21 22 20 25 23 19 23 23 21
2 2 2 4 3 5 5 4 7 8 8 11 9 5 3 4 7 6 6 7 12 12 14 15 16 15 19 21 23 24 23 20 16 17 18 13 18 25 26 28 26 21 23
4 2 1 3 3 4 5 3 4 8 10 13 11 8 7 7 8 5 3 5 8 10 13 20 22 19 22 23 22 21 20 18 19 20 16 21 29 30 28 26 23 19 23
6 4 4 6 5 3 5 6 3 7 12 12 13 10 9 8 8 5 4 4 4 9 13 17 22 20 20 20 22 22 22 23 21 22 27 25 20 21 25 25 23 23 20
8 6 7 8 9 7 2 4 4 8 14 13 15 12 10 9 7 8 7 8 8 14 13 16 14 16 18 17 14 20 25 26 25 27 21 17 27 28 25 22 21 20 17
9 8 8 7 8 9 6 5 6 9 15 13 13 13 11 8 5 9 9 10 12 14 17 14 12 13 14 16 15 14 18 19 21 20 20 25 23 19 19 20 18 15 11
9 9 9 8 9 9 8 7 10 11 14 14 15 12 10 9 10 11 12 14 16 14 15 14 14 16 18 17 18 20 20 20 21 22 21 19 18 17 19 17 13 8 4
11 10 10 10 9 9 9 10 12 15 16 17 15 11 9 11 13 13 14 15 15 16 16 17 19 20 19 18 18 16 14 13 13 13 14 15 17 17 15 12 8 5 4
12 12 12 12 11 13 13 13 14 15 16 16 13 11 12 12 15 17 17 19 19 19 16 16 16 16 15 14 14 15 14 13 13 13 14 14 14 13 11 10 7 6 5
13 13 14 14 12 12 15 16 16 15 12 12 13 13 14 15 16 16 16 15 15 16 15 13 14 14 13 13 13 13 12 12 12 12 11 11 10 10 9 7 6 7 8
12 13 15 15 14 12 13 15 15 17 18 17 17 17 18 19 18 15 13 11 11 11 10 10 10 11 13 14 14 14 13 11 10 9 9 8 8 9 10 10 10 10 12
9 12 13 15 16 14 12 13 15 16 15 15 14 14 14 14 13 13 13 12 11 9 8 7 8 12 13 13 13 11 9 11 11 10 9 8 9 9 8 10 11 12 15
11 11 15 16 17 17 15 13 12 13 14 15 14 13 12 10 9 8 8 8 7 7 6 6 7 8 10 12 12 10 11 10 7 5 6 6 6 8 9 11 13 15 17
15 15 14 17 18 19 19 18 16 14 13 13 13 11 10 9 8 7 7 7 6 5 5 5 5 8 10 9 8 12 14 16 14 13 12 12 11 13 14 15 17 18 20
14 17 18 17 16 16 17 18 19 18 18 17 16 16 15 12 11 10 10 9 9 8 8 8 8 8 9 10 12 14 16 17 19 18 17 16 17 19 20 20 21 21 22
22 18 17 18 20 19 17 16 18 20 20 21 21 20 20 20 21 21 20 18 17 16 16 15 15 15 16 16 16 17 18 20 22 23 24 24 25 26 27 28 28 28 28
28 26 23 21 18 20 22 22 21 20 19 19 21 22 24 24 25 25 26 25 25 24 24 24 23 23 23 23 23 24 25 26 27 28 29 30 30 31 31 32 32 31 30
32 34 34 31 28 24 22 21 21 21 21 20 20 20 21 22 24 26 27 27 28 28 28 29 29 30 31 31 31 30 31 32 32 34 35 35 33 31 31 31 31 33 35

GFSGL_500_spd_033.txt.gz
Wind_Speed
19 18 17 17 18 18 17 19 22 19 16 15 15 15 13 13 12 13 15 16 19 13 9 6 2 3 9 11 10 11 22 21 20 21 21 22 22 23 23 23 24 24 25
16 14 15 15 17 18 19 20 18 17 15 15 14 12 11 11 11 12 14 15 19 15 8 3 2 5 9 15 11 14 20 23 21 21 22 22 22 23 23 22 24 23 22
13 13 12 15 15 16 17 18 15 15 15 13 13 9 10 9 10 11 13 13 13 12 10 4 4 7 8 13 14 15 20 20 22 22 22 22 24 23 23 20 21 21 22
12 11 12 13 13 14 14 14 16 16 15 12 10 7 8 7 9 10 11 12 11 9 6 6 8 10 11 13 13 14 15 19 23 23 22 22 23 22 23 22 19 18 17
11 10 11 12 14 16 17 17 17 15 14 11 8 7 5 8 5 6 10 13 9 1 3 8 10 11 14 15 12 13 14 18 21 21 23 23 21 21 22 20 21 18 13
10 9 11 11 10 10 10 12 11 11 11 10 8 5 4 4 5 6 9 12 7 5 5 6 9 12 15 15 15 16 17 21 24 23 22 22 23 22 21 21 20 17 16
9 8 7 7 6 6 6 6 9 9 7 8 6 5 0 3 5 6 7 8 6 3 4 4 10 13 12 16 16 18 20 22 20 20 22 24 22 16 27 22 20 22 22
7 7 6 5 4 6 5 5 6 6 6 8 5 4 1 2 3 3 10 12 7 6 3 3 8 15 16 14 15 17 20 21 21 21 24 23 22 19 20 28 21 22 16
7 6 5 4 6 6 5 7 7 6 7 9 5 3 1 2 4 4 9 12 12 11 3 3 9 15 17 16 18 19 20 20 19 18 18 20 22 26 17 20 16 20 24
7 7 5 4 6 7 6 7 7 7 7 11 7 3 3 3 6 7 9 11 11 15 11 8 13 17 20 19 21 21 21 21 20 21 20 19 20 19 20 24 28 26 28
7 6 4 4 5 6 7 5 5 8 9 12 9 5 5 6 7 6 7 9 10 18 19 16 17 19 23 24 23 23 20 18 20 21 16 13 21 22 25 27 25 25 30
7 5 3 1 0 3 6 7 3 7 11 12 11 8 7 6 5 6 6 7 11 16 21 23 22 17 18 21 21 19 17 16 19 15 18 22 24 24 28 21 19 20 20
8 6 5 5 4 2 4 6 7 9 12 10 12 9 9 6 6 8 8 9 15 16 15 20 22 22 19 17 16 18 22 20 19 26 29 26 24 27 28 29 25 21 19
8 7 6 7 7 5 3 5 5 11 15 12 13 9 9 5 4 8 8 11 15 18 16 16 15 21 22 18 16 19 20 24 28 22 19 19 26 29 28 26 23 18 13
8 9 7 7 7 7 6 6 9 12 17 14 15 11 8 7 11 11 10 12 15 16 17 14 16 21 24 21 20 18 19 22 20 22 25 25 24 24 24 22 18 13 10
9 10 10 9 9 9 9 7 9 14 15 16 14 10 7 10 12 14 13 14 15 16 16 18 20 20 25 24 23 20 17 16 18 22 22 19 20 21 20 17 13 10 8
11 12 12 11 13 11 11 11 11 14 15 16 12 11 12 13 14 15 15 15 15 16 17 17 17 18 18 18 18 18 18 17 16 16 16 15 16 17 16 14 11 8 7
12 12 13 12 13 13 12 14 14 14 13 13 13 15 15 16 16 16 17 17 18 18 16 15 14 14 14 14 15 15 15 15 14 15 15 16 17 15 13 12 11 10 10
13 13 14 13 12 12 13 15 15 15 15 15 15 14 15 17 18 17 15 13 12 13 13 14 13 12 12 12 13 14 14 15 15 15 15 15 14 13 13 13 12 11 12
11 13 14 13 13 11 11 13 15 17 18 19 19 18 17 15 13 12 12 12 12 11 10 8 10 12 12 12 14 14 13 13 13 13 12 12 12 12 12 11 11 12 13
13 13 14 15 13 13 12 11 12 14 16 16 17 17 16 14 13 11 10 9 8 8 8 9 10 10 11 12 13 11 9 9 10 10 9 8 9 10 11 12 13 14 15
17 15 15 16 16 15 14 13 11 12 14 16 17 17 16 14 13 11 10 9 8 8 7 8 8 9 11 12 13 13 12 12 13 12 10 10 12 13 13 13 15 16 17
21 20 18 16 16 16 17 17 16 15 13 13 15 15 16 15 15 14 13 12 10 8 6 6 6 7 8 10 12 12 15 18 20 20 20 19 18 18 19 19 20 21 22
24 23 23 21 19 17 17 18 19 18 17 16 15 15 15 14 14 14 14 13 13 13 13 13 13 13 13 13 13 14 15 18 20 22 24 23 22 22 23 24 25 26 27
27 27 26 25 23 24 22 20 19 20 21 21 22 22 22 22 21 20 19 19 18 18 19 19 19 21 21 21 21 21 22 24 24 26 27 27 27 28 28 28 28 29 30
20 22 29 26 27 27 26 25 25 25 25 24 24 24 25 26 26 26 27 26 26 26 26 26 26 27 27 28 29 29 30 31 32 33 34 32 31 31 31 31 32 34 34

GFSGL_500_spd_036.txt.gz
Wind_Speed
21 22 22 22 22 23 24 23 24 24 25 24 21 19 19 20 17 15 16 18 19 19 21 13 7 6 9 9 7 9 12 17 17 20 19 20 21 22 23 24 22 23 27
20 21 21 20 21 21 23 24 25 25 23 19 17 18 20 16 12 15 17 18 19 20 9 3 8 8 11 12 11 7 15 16 16 20 21 20 21 20 21 23 23 23 26
21 17 18 19 20 21 21 21 21 21 18 17 16 18 15 12 12 14 15 17 20 19 12 6 9 10 11 15 13 9 17 20 17 19 21 22 21 20 20 21 21 22 23
16 16 17 18 19 19 19 18 17 16 18 16 16 14 11 11 11 13 12 15 15 13 13 10 11 11 11 15 13 14 19 22 20 20 21 21 21 20 21 19 19 20 20
16 16 17 17 17 18 19 19 19 19 19 16 14 11 10 10 10 8 10 13 9 1 6 11 12 13 13 16 16 16 19 20 22 22 21 19 19 19 18 17 18 18 19
15 16 15 16 17 16 16 14 14 14 12 11 11 9 9 7 7 5 8 11 3 1 8 11 12 12 16 18 16 16 15 19 23 22 20 18 19 19 20 21 18 14 11
15 15 14 15 12 11 11 8 8 8 8 9 9 8 6 7 4 4 5 6 2 4 2 9 11 12 16 17 14 14 14 17 18 19 21 21 22 26 21 19 21 20 19
14 13 13 12 10 9 7 6 5 5 7 8 8 6 5 5 3 3 7 7 3 3 4 5 12 12 14 14 14 15 15 16 18 18 17 18 17 18 22 22 23 18 14
14 12 12 10 9 8 5 4 3 6 7 10 6 4 4 2 2 4 9 10 7 3 3 7 11 14 14 16 17 18 20 19 18 18 20 20 16 18 24 23 19 21 20
12 11 10 11 9 6 5 4 3 6 8 11 7 4 2 3 4 5 7 10 9 9 7 10 17 16 14 17 21 22 21 19 19 21 18 19 14 18 24 19 24 16 18
11 10 10 10 7 6 6 5 4 7 8 10 9 4 2 6 5 6 7 12 15 14 13 16 19 20 20 23 23 23 23 24 23 23 22 21 22 15 19 18 24 26 26
9 9 8 7 6 6 8 8 4 7 9 10 10 5 4 6 4 7 6 10 17 19 16 18 20 22 23 26 27 25 21 21 21 24 22 23 22 17 20 23 20 23 27
7 8 6 5 5 5 8 11 8 8 12 12 11 6 6 6 5 8 7 14 15 18 19 18 17 20 23 23 22 21 21 21 21 20 19 25 22 24 23 19 21 20 20
7 7 4 3 2 6 8 9 9 11 13 15 14 10 9 6 7 8 9 15 13 14 16 20 22 20 17 17 19 17 20 17 17 20 23 26 28 28 27 28 25 22 19
6 6 4 2 3 5 7 11 10 14 16 17 14 11 8 7 11 9 10 14 15 15 14 17 23 22 17 17 18 18 18 21 22 25 23 26 28 26 25 25 20 17 13
7 8 6 3 5 6 9 11 11 17 16 18 13 11 8 11 11 10 12 13 15 12 12 15 19 24 25 23 21 21 24 19 17 22 24 23 23 24 24 22 19 14 10
8 10 7 6 7 8 10 12 15 18 17 17 12 9 12 13 13 13 14 14 14 14 15 16 16 19 20 24 24 21 16 16 22 22 21 20 20 22 21 18 15 11 9
10 11 8 9 8 10 13 14 16 16 17 14 12 11 12 14 15 13 13 16 16 16 17 16 15 15 16 19 22 23 24 23 21 18 17 16 18 19 18 16 12 11 9
12 13 10 8 9 11 14 15 14 15 15 14 14 14 14 14 16 17 16 16 17 18 17 15 13 13 12 12 12 13 15 16 16 15 15 16 18 17 15 13 12 11 10
12 13 12 9 9 11 12 13 15 15 16 17 18 17 16 16 14 13 14 14 14 13 12 12 12 11 11 11 11 12 12 13 14 14 13 13 13 13 13 12 12 12 12
15 14 14 12 10 10 11 12 14 16 17 15 17 19 19 17 15 13 12 11 11 11 11 11 11 11 12 13 14 14 13 13 13 13 13 12 12 12 12 13 13 13 14
19 18 16 16 13 11 11 11 11 12 13 16 15 14 15 15 15 15 14 14 14 13 12 12 13 13 13 13 13 12 10 10 11 13 13 13 12 11 11 12 13 14 16
21 19 19 19 18 16 13 11 11 12 11 11 13 13 12 11 11 11 10 10 9 8 8 8 10 11 13 14 16 17 17 18 18 18 19 18 16 16 17 18 20 20 21
27 25 22 21 21 20 19 18 16 13 12 12 11 11 11 10 10 9 8 7 6 6 6 6 7 8 9 9 10 12 14 16 18 20 23 23 23 22 22 22 23 25 26
31 30 29 27 25 23 23 22 21 21 20 19 18 18 17 17 16 15 15 15 15 15 15 15 16 16 17 17 16 17 18 19 20 20 21 21 21 23 24 25 26 27 28
19 31 31 30 30 28 28 27 25 25 24 25 26 26 26 26 26 26 25 25 25 25 25 26 26 24 23 23 24 25 26 27 28 29 29 29 29 29 30 31 32 32 32

GFSGL_500_spd_042.txt.gz
Wind_Speed
33 32 29 28 27 28 26 24 23 22 25 25 24 24 25 27 25 23 22 25 25 23 21 23 25 30 15 13 10 7 8 9 9 7 10 12 14 16 13 14 12 12 16
30 27 27 26 24 23 22 21 21 22 21 20 23 25 24 22 20 22 23 23 21 22 24 23 22 13 12 14 12 11 10 9 12 11 9 10 12 15 14 12 10 13 18
27 26 23 22 21 20 20 20 19 18 19 21 22 20 16 18 19 21 20 21 21 22 23 27 18 14 14 14 14 12 12 10 12 11 10 8 15 15 14 14 13 12 18
26 23 22 22 20 19 18 17 15 18 21 23 23 20 17 19 17 18 19 20 20 22 26 15 12 14 14 15 15 12 11 12 13 12 13 12 14 14 14 13 13 13 15
23 21 22 20 17 16 15 13 16 20 22 20 19 19 19 18 16 16 18 19 19 17 11 8 7 13 13 17 15 13 12 14 13 14 16 14 13 11 12 14 13 12 12
21 20 18 16 15 15 12 14 18 17 16 16 17 15 14 13 12 15 16 17 16 13 15 8 10 13 12 17 17 11 13 15 12 12 14 15 14 13 13 14 14 13 12
19 18 16 14 14 11 12 15 12 13 12 12 9 9 11 8 10 13 14 16 12 8 6 11 12 12 11 13 17 13 13 15 12 10 12 14 15 15 14 13 14 14 16
17 14 13 13 11 12 12 9 11 10 10 7 7 8 7 8 10 11 12 8 7 5 1 11 12 12 12 14 15 13 14 15 16 15 14 13 15 14 13 14 17 14 13
13 11 13 12 11 10 9 10 9 8 9 8 7 6 6 7 7 7 13 13 7 4 2 10 11 12 16 16 15 15 16 17 19 19 16 14 14 15 17 17 13 11 11
12 12 11 11 9 8 8 8 9 8 8 8 7 5 5 4 4 5 10 8 4 5 6 10 12 13 14 14 14 15 16 18 18 19 19 17 14 15 14 17 17 17 16
11 10 9 9 8 7 8 9 10 9 8 9 8 5 3 2 2 5 5 6 5 2 6 8 11 11 16 14 14 16 17 18 19 19 19 19 18 16 17 14 17 17 15
10 8 8 7 8 8 9 10 10 9 10 10 10 5 4 3 1 5 7 7 7 4 6 9 9 11 17 16 17 18 18 18 18 17 18 16 17 20 21 19 15 16 15
9 7 4 6 7 8 8 8 9 9 12 11 10 6 6 4 2 5 7 9 6 6 8 9 11 12 14 17 19 18 17 16 17 16 16 13 13 16 17 17 13 17 12
7 4 4 6 5 4 6 11 12 11 11 10 11 8 8 3 3 4 5 7 5 7 8 11 12 15 17 18 18 16 15 16 16 15 17 14 13 14 16 14 15 13 16
5 4 4 4 3 6 9 11 13 11 12 10 11 8 6 3 4 5 8 4 5 7 11 13 16 16 16 14 13 13 14 14 15 15 15 14 11 13 17 19 16 18 19
5 4 3 3 4 6 8 10 10 11 11 12 11 9 5 3 5 7 11 6 4 7 8 13 14 14 13 12 12 13 12 11 13 13 13 16 18 19 19 18 17 18 17
7 5 3 3 5 5 6 9 11 11 12 13 11 8 5 7 5 8 11 11 6 5 6 10 14 14 14 13 12 11 12 12 12 11 13 18 17 15 19 18 18 16 13
9 7 4 4 2 5 7 7 10 13 13 13 11 9 8 7 7 8 9 8 6 7 7 7 10 12 13 12 13 13 10 9 7 10 12 16 16 14 16 22 19 15 11
11 8 4 5 4 8 8 10 13 13 14 11 12 12 11 9 8 9 9 8 10 10 10 11 11 11 12 14 13 7 7 10 13 15 15 15 16 17 15 15 15 12 9
12 10 8 8 8 9 10 12 12 14 12 12 12 13 12 11 10 11 11 11 11 10 9 9 11 12 12 11 10 9 12 13 12 10 10 10 13 14 15 15 14 12 12
14 12 9 6 10 10 12 14 14 13 11 13 13 13 13 13 14 13 14 14 12 9 8 7 7 8 8 9 9 9 10 10 10 9 9 10 11 13 14 15 15 16 15
18 15 12 11 8 10 11 13 13 12 13 11 12 13 12 11 10 12 12 10 9 9 9 9 8 8 8 7 7 8 9 9 9 9 9 9 10 11 13 14 15 16 17
18 18 15 12 13 11 12 13 13 13 14 14 13 13 12 11 11 9 10 12 12 10 7 4 4 4 4 5 6 6 6 6 6 5 6 9 11 12 13 14 15 15 16
20 22 20 20 14 14 12 12 14 11 11 11 11 10 10 9 7 9 8 7 6 3 3 2 3 4 5 6 7 8 9 10 10 11 12 14 16 18 20 21 23 25 26
21 22 18 22 19 14 9 16 12 14 14 12 13 13 12 10 8 8 8 8 7 8 7 7 7 7 8 10 10 12 14 15 16 17 18 18 19 22 23 25 27 28 29
28 23 24 24 23 22 21 21 18 16 15 16 16 16 15 16 16 15 14 12 13 13 14 14 15 16 16 17 18 20 20 21 22 24 26 25 27 28 30 31 32 34 35

GFSGL_500_spd_045.txt.gz
Wind_Speed
38 37 36 34 32 29 27 26 25 26 25 22 21 22 22 23 25 24 21 22 23 23 21 20 20 21 23 20 13 9 7 6 9 8 8 11 11 16 7 17 14 14 16
39 34 31 31 28 25 24 24 24 22 20 20 19 19 20 20 21 19 20 20 22 20 20 21 21 19 21 11 12 10 11 10 8 8 10 9 11 14 12 14 14 14 17
31 29 28 25 21 22 23 22 19 18 19 17 17 19 19 19 19 20 19 19 19 19 21 21 23 25 19 12 12 11 13 10 11 11 10 9 11 12 17 14 13 16 19
27 26 24 21 19 21 21 18 17 17 15 16 17 19 20 21 22 21 19 19 18 19 20 17 16 15 15 15 16 13 12 12 13 12 11 8 14 18 16 16 15 16 20
25 22 22 20 21 22 19 17 15 14 14 17 18 18 19 19 19 19 18 19 17 18 18 14 11 13 14 15 17 16 13 15 15 12 14 14 15 15 16 17 16 16 18
22 22 21 21 20 19 16 14 12 13 15 14 15 17 19 17 14 14 15 16 15 15 14 14 11 12 13 15 15 17 13 16 16 15 14 15 16 15 15 16 16 13 14
22 21 19 18 17 16 14 12 11 13 11 12 13 13 11 10 10 12 15 14 16 11 12 5 8 11 12 12 14 12 14 16 12 13 15 16 16 14 15 16 16 16 16
20 18 18 16 15 13 11 11 11 10 10 10 10 8 8 8 9 12 11 12 7 6 5 7 10 11 9 10 19 14 15 17 14 14 16 16 15 14 13 14 14 15 15
16 16 15 14 13 11 11 10 10 9 8 8 10 7 5 6 9 9 10 14 8 2 1 9 10 10 10 13 15 15 16 17 18 16 17 18 16 15 15 14 16 14 17
15 15 13 13 11 11 10 10 10 9 7 8 10 6 5 7 6 7 11 8 6 3 3 8 9 11 14 14 12 12 12 15 16 17 19 19 19 16 12 11 12 11 11
15 13 13 12 11 10 10 10 9 9 7 9 9 6 4 4 3 5 3 6 6 1 7 11 11 14 15 14 12 12 13 16 19 19 19 19 20 18 15 16 14 11 11
13 12 10 9 10 10 9 9 9 8 7 9 11 6 3 4 2 2 5 6 5 5 9 12 11 14 14 13 12 13 14 15 15 15 16 16 16 20 20 16 15 14 11
14 12 9 10 9 9 10 10 10 10 9 10 11 7 4 3 0 4 5 7 6 6 8 9 9 11 14 14 14 15 15 14 14 14 13 12 12 12 16 13 14 16 12
11 9 9 7 6 8 9 10 11 11 11 12 12 9 5 3 3 2 3 6 5 6 6 7 9 13 15 15 16 16 14 13 14 14 13 9 10 14 15 16 14 17 13
10 9 7 6 7 9 9 8 9 12 13 12 11 8 6 4 5 5 3 5 4 5 7 8 11 12 14 14 14 13 13 14 14 13 13 11 10 14 14 14 15 15 15
10 8 7 7 9 11 10 10 7 7 12 13 12 10 7 4 6 7 7 5 6 5 8 8 10 13 14 14 13 12 11 12 13 14 13 12 9 10 17 18 15 16 18
11 8 6 5 7 7 8 10 9 8 9 11 12 9 5 8 5 8 9 6 7 7 7 8 9 9 9 8 8 9 9 10 11 11 10 10 11 10 13 14 16 17 17
10 8 6 8 6 7 8 10 12 11 12 13 11 8 7 9 7 8 9 6 4 6 8 9 9 9 8 9 9 9 9 10 10 9 11 13 11 10 16 18 19 17 15
13 6 6 6 6 10 10 10 11 12 13 12 10 10 10 11 10 10 9 8 8 7 8 11 11 11 11 12 12 8 7 7 10 13 13 13 14 17 16 17 17 15 13
14 9 8 7 9 10 12 14 14 14 12 10 11 12 13 12 11 11 11 11 9 9 9 9 10 13 14 14 9 5 8 9 10 10 10 10 13 18 20 18 17 17 15
15 10 9 10 10 11 13 13 16 13 11 11 11 11 12 13 13 12 13 14 13 11 11 10 10 11 11 8 7 9 11 10 9 8 9 9 11 14 16 17 18 18 17
15 12 11 10 8 12 13 15 15 13 11 11 11 11 11 11 9 9 9 8 7 5 4 6 7 5 5 6 6 6 7 8 7 7 8 9 10 12 14 16 17 18 19
15 13 11 12 13 12 11 13 13 13 11 9 8 8 8 7 8 7 5 6 5 4 4 4 6 7 7 7 7 7 8 8 8 8 8 8 10 11 13 16 18 19 22
16 17 17 14 13 13 13 13 12 11 10 9 9 8 8 9 9 9 8 6 7 8 7 6 8 9 9 7 7 8 9 8 8 7 9 12 15 17 18 19 21 24 26
15 18 16 16 15 13 12 12 11 14 12 12 12 12 11 10 9 8 8 8 10 10 9 10 9 7 7 8 9 11 12 13 14 15 16 17 18 19 21 23 26 29 31
19 17 15 13 22 17 18 15 15 15 16 16 15 14 14 13 11 11 9 9 11 10 11 10 9 9 10 11 12 13 15 16 18 20 22 23 25 27 29 31 32 34 36

GFSGL_500_spd_048.txt.gz
Wind_Speed
39 39 37 37 36 34 33 33 33 31 29 28 26 26 25 25 22 23 27 28 26 24 22 23 21 20 19 20 19 11 7 7 5 6 7 12 13 16 15 19 18 18 18
39 37 38 38 37 34 30 30 30 29 27 26 26 25 23 21 21 24 23 23 23 21 22 20 20 20 19 19 16 10 10 8 6 4 7 12 12 14 9 21 19 17 20
42 41 40 38 33 30 29 29 27 27 25 24 24 22 20 21 23 23 23 24 23 21 21 21 20 22 23 22 16 12 14 11 10 9 11 12 15 16 13 17 17 18 21
40 36 33 28 27 27 26 25 26 23 22 22 20 19 21 23 24 24 24 24 22 21 21 20 20 17 18 14 15 13 15 13 12 10 12 13 14 13 14 17 15 19 22
36 31 25 26 26 24 25 23 23 23 21 19 19 21 23 23 23 22 21 21 19 20 19 21 18 16 14 14 15 17 16 17 14 14 13 12 15 18 19 18 17 21 23
30 27 25 25 24 24 24 23 22 22 19 19 20 20 19 20 21 20 18 16 18 19 21 20 17 17 15 16 15 20 18 17 18 17 14 13 18 17 18 19 20 20 22
30 29 27 27 26 24 22 22 23 20 19 18 16 15 16 15 14 13 13 16 15 18 16 12 11 10 13 14 14 17 19 17 18 16 13 15 16 17 18 19 20 22 24
30 29 27 26 24 21 22 22 21 18 16 13 13 14 12 12 11 11 12 12 14 11 9 7 8 11 13 14 13 17 17 18 17 15 16 16 15 16 18 19 20 18 19
30 28 26 23 21 22 21 20 18 15 13 11 12 13 11 9 9 9 8 13 10 5 4 5 8 11 11 11 16 14 18 19 16 16 18 18 17 16 18 19 17 19 18
27 23 23 22 22 21 20 17 15 14 12 12 12 8 9 8 7 5 8 8 8 5 4 6 9 11 11 14 19 17 16 17 16 16 19 21 20 17 16 16 17 16 21
25 24 22 21 20 19 17 14 13 14 14 12 8 8 8 6 2 4 4 6 6 4 7 11 11 11 13 13 14 12 14 16 18 17 18 18 19 18 17 16 17 15 16
23 21 20 20 19 17 14 13 15 14 14 10 9 9 6 3 1 1 4 6 3 5 10 12 11 12 12 12 11 12 12 13 15 15 15 15 17 19 20 20 16 13 11
22 20 19 18 15 16 16 15 15 14 14 11 12 10 5 4 3 2 3 5 2 6 10 11 10 12 12 12 11 12 14 14 14 15 15 15 14 14 16 15 17 14 12
20 20 17 13 13 14 15 15 14 15 14 12 13 11 5 5 5 2 2 4 4 7 9 10 11 13 13 11 11 13 13 13 13 14 14 14 14 14 15 14 13 15 13
19 15 13 13 12 12 13 13 15 14 12 14 13 11 7 7 5 4 2 5 5 8 10 9 10 11 12 11 12 11 12 13 14 15 13 11 10 13 16 18 15 19 17
17 15 14 12 12 13 12 13 13 13 13 15 14 12 10 7 5 6 4 5 7 8 10 10 10 10 11 11 11 10 10 11 12 11 12 9 9 9 11 15 16 17 15
16 14 11 11 12 14 13 13 11 9 15 20 16 13 10 7 7 8 8 6 8 10 11 12 12 12 11 11 10 10 10 11 12 13 12 10 8 6 13 16 13 15 16
14 11 9 11 12 14 13 13 13 13 13 15 14 12 8 10 7 10 10 6 7 10 11 11 10 10 9 9 9 8 8 10 12 13 13 10 10 10 12 15 17 18 19
12 11 12 12 10 10 11 13 14 13 14 15 12 10 11 10 9 11 11 8 7 10 14 13 11 12 11 10 11 11 9 8 9 13 13 13 13 12 14 17 19 19 18
14 11 12 12 11 11 11 13 16 16 16 14 11 10 11 12 11 12 11 10 9 9 13 15 14 13 12 13 10 7 8 8 11 13 14 12 13 16 16 15 17 17 16
14 11 11 13 13 12 14 16 17 17 15 13 12 11 12 12 11 9 9 9 9 8 9 9 10 11 10 9 6 7 9 10 9 9 9 10 11 16 19 17 18 19 19
16 13 13 13 14 15 14 16 15 14 13 13 12 11 10 9 9 9 10 9 10 9 8 9 10 9 8 7 6 8 8 7 6 7 7 7 9 12 16 18 20 21 22
16 13 14 14 13 14 14 16 16 16 13 12 12 13 15 16 14 12 11 10 10 11 9 7 7 7 8 8 7 8 10 10 10 10 9 8 8 9 11 15 18 20 23
16 15 12 13 13 14 13 14 14 14 14 14 13 12 10 11 14 13 11 10 10 10 10 7 8 9 10 10 11 10 10 10 9 8 8 9 11 13 15 17 20 23 24
13 15 12 10 12 12 13 16 16 15 15 14 14 14 15 13 11 11 11 9 7 6 7 8 8 8 8 8 7 8 9 9 10 11 12 14 16 17 19 20 22 25 26
17 14 13 14 12 14 14 15 16 16 17 16 16 17 16 15 15 15 14 12 10 10 10 9 8 8 8 8 9 10 10 11 13 15 17 19 21 24 26 28 31 33 35